Location: Drummondville
(45.8830°N, 72.4830°W)
Time: 19:06:34
(UTC-05:00)

N. Korean satellite - Pass Details

Date: 12 November 2017
Orbit: 460 x 515 km, 97.2° (Epoch: 18 November)

Event Time Altitude Azimuth Distance (km) Brightness Sun altitude
Rises 05:48:35 0° 27° (NNE) 2,584 10.4 -10.2°
Reaches altitude 10° 05:51:06 10° 45° (NE) 1,707 9.7 -9.8°
Maximum altitude 05:53:50 19° 93° (E) 1,229 9.8 -9.4°
Drops below altitude 10° 05:56:34 10° 141° (SE) 1,716 10.3 -8.9°
Sets 05:59:06 0° 159° (SSE) 2,603 10.9 -8.5°
